RYR425M EHEH-LERS

Flight info

Callsign RYR425M
Flight time 1h 46m
Altitude 37000
Route WOODY N872 MEDIL DCT KOVIN DCT DUCRA UM728 RESMI UN857 DISAK DCT DIRMO DCT VALKU DCT ATSUP DCT MINSO DCT DEGOL DCT PPG DCT ALBER P84 GIR
Aircraft B38M/M-SADE3FGILRWY/SB1

Departure

Time 2026-04-21 13:51
Airport Eindhoven Airport (EHEH)

Arrival

Time 2026-04-21 15:37
Airport Reus Airport (LERS)
Time Latitude Longitude Altitude Speed Heading
2026-04-21 13:39 51.45754 5.38933 77 ft 0 kts 125°
2026-04-21 13:44 51.45762 5.38966 70 ft 0 kts 125°
2026-04-21 13:44 51.45727 5.38928 73 ft 0 kts 126°
2026-04-21 13:46 51.45731 5.38918 73 ft 4 kts 126°
2026-04-21 13:47 51.45747 5.38884 67 ft 4 kts 125°
2026-04-21 13:47 51.45758 5.38856 71 ft 4 kts 110°
2026-04-21 13:47 51.45760 5.38817 69 ft 4 kts 69°
2026-04-21 13:47 51.45748 5.38791 67 ft 1 kts 35°
2026-04-21 13:49 51.45748 5.38792 67 ft 0 kts 35°
2026-04-21 13:49 51.45763 5.38807 75 ft 6 kts 28°
2026-04-21 13:49 51.45804 5.38786 72 ft 9 kts 314°
2026-04-21 13:49 51.45857 5.38660 77 ft 17 kts 303°
2026-04-21 13:50 51.45921 5.38488 80 ft 9 kts 271°
2026-04-21 13:50 51.45800 5.38331 74 ft 58 kts 216°
2026-04-21 13:50 51.45246 5.37717 73 ft 133 kts 216°
2026-04-21 13:50 51.44333 5.36677 189 ft 180 kts 216°
2026-04-21 13:51 51.43356 5.35438 1047 ft 177 kts 221°
2026-04-21 13:51 51.42521 5.33920 1818 ft 189 kts 238°
2026-04-21 13:51 51.41996 5.31890 2461 ft 208 kts 253°
2026-04-21 13:51 51.41540 5.29535 3042 ft 234 kts 253°
2026-04-21 13:52 51.41011 5.26948 3813 ft 254 kts 252°
2026-04-21 13:52 51.40423 5.24170 4620 ft 273 kts 251°
2026-04-21 13:52 51.39791 5.21241 5588 ft 281 kts 250°
2026-04-21 13:52 51.39144 5.18277 6754 ft 283 kts 250°
2026-04-21 13:53 51.38484 5.15282 7786 ft 287 kts 250°
2026-04-21 13:53 51.37809 5.12228 8699 ft 295 kts 250°
2026-04-21 13:53 51.37116 5.09108 9627 ft 300 kts 250°
2026-04-21 13:53 51.36412 5.05941 10496 ft 305 kts 250°
2026-04-21 13:54 51.35679 5.02654 11022 ft 322 kts 250°
2026-04-21 13:54 51.34906 4.99199 11551 ft 336 kts 250°
2026-04-21 13:54 51.34110 4.95648 12307 ft 341 kts 250°
2026-04-21 13:54 51.33305 4.92050 13064 ft 346 kts 250°
2026-04-21 13:55 51.32487 4.88409 13797 ft 350 kts 250°
2026-04-21 13:55 51.31658 4.84721 14458 ft 355 kts 250°
2026-04-21 13:55 51.30820 4.80994 15123 ft 357 kts 250°
2026-04-21 13:55 51.29975 4.77250 15764 ft 360 kts 250°
2026-04-21 13:56 51.29123 4.73477 16519 ft 361 kts 250°
2026-04-21 13:56 51.28265 4.69688 17206 ft 364 kts 250°
2026-04-21 13:56 51.27400 4.65876 17852 ft 367 kts 250°
2026-04-21 13:56 51.26525 4.62025 18497 ft 370 kts 251°
2026-04-21 13:57 51.25641 4.58140 19023 ft 373 kts 251°
2026-04-21 13:57 51.24750 4.54236 19576 ft 375 kts 251°
2026-04-21 13:57 51.23859 4.50334 20150 ft 375 kts 251°
2026-04-21 13:57 51.22959 4.46406 20659 ft 378 kts 251°
2026-04-21 13:58 51.22053 4.42454 21152 ft 380 kts 251°
2026-04-21 13:58 51.21143 4.38493 21689 ft 381 kts 251°
2026-04-21 13:58 51.20228 4.34520 22203 ft 383 kts 251°
2026-04-21 13:58 51.19305 4.30518 22653 ft 386 kts 252°
2026-04-21 13:59 51.18374 4.26488 23119 ft 388 kts 251°
2026-04-21 13:59 51.17293 4.22544 23584 ft 392 kts 239°
2026-04-21 13:59 51.15528 4.19252 24034 ft 395 kts 220°
2026-04-21 13:59 51.13183 4.16928 24339 ft 400 kts 204°
2026-04-21 14:00 51.10578 4.15332 24673 ft 403 kts 201°
2026-04-21 14:00 51.07940 4.13787 25027 ft 404 kts 200°
2026-04-21 14:00 51.05286 4.12280 25352 ft 406 kts 200°
2026-04-21 14:00 51.02612 4.10789 25661 ft 409 kts 200°
2026-04-21 14:01 50.99923 4.09309 25987 ft 410 kts 200°
2026-04-21 14:01 50.97221 4.07831 26321 ft 411 kts 200°
2026-04-21 14:01 50.94510 4.06353 26598 ft 413 kts 200°
2026-04-21 14:01 50.91789 4.04871 26881 ft 415 kts 200°
2026-04-21 14:02 50.89085 4.03400 27166 ft 416 kts 200°
2026-04-21 14:02 50.86389 4.01720 27428 ft 417 kts 204°
2026-04-21 14:02 50.83700 3.99969 27689 ft 419 kts 204°
2026-04-21 14:03 50.78275 3.96496 28199 ft 423 kts 204°
2026-04-21 14:03 50.75542 3.94759 28444 ft 424 kts 204°
2026-04-21 14:03 50.72796 3.93017 28703 ft 426 kts 205°
2026-04-21 14:03 50.70044 3.91273 28970 ft 427 kts 205°
2026-04-21 14:04 50.67276 3.89522 29221 ft 429 kts 205°
2026-04-21 14:04 50.64497 3.87767 29481 ft 431 kts 205°
2026-04-21 14:04 50.61714 3.86010 29741 ft 433 kts 205°
2026-04-21 14:04 50.58915 3.84246 29990 ft 434 kts 205°
2026-04-21 14:05 50.56124 3.82385 30181 ft 436 kts 208°
2026-04-21 14:05 50.53334 3.80463 30360 ft 439 kts 208°
2026-04-21 14:05 50.50534 3.78552 30582 ft 440 kts 208°
2026-04-21 14:05 50.47712 3.76633 30791 ft 442 kts 208°
2026-04-21 14:06 50.44885 3.74717 30984 ft 444 kts 208°
2026-04-21 14:06 50.42049 3.72796 31180 ft 445 kts 208°
2026-04-21 14:06 50.39194 3.70866 31394 ft 447 kts 208°
2026-04-21 14:06 50.36339 3.68937 31556 ft 449 kts 208°
2026-04-21 14:07 50.33462 3.66996 31702 ft 451 kts 210°
2026-04-21 14:07 50.30577 3.65041 31882 ft 453 kts 210°
2026-04-21 14:07 50.27682 3.63085 32110 ft 454 kts 210°
2026-04-21 14:07 50.24782 3.61129 32305 ft 455 kts 209°
2026-04-21 14:08 50.21873 3.59169 32525 ft 456 kts 209°
2026-04-21 14:08 50.18953 3.57204 32743 ft 458 kts 209°
2026-04-21 14:08 50.16022 3.55236 32953 ft 459 kts 209°
2026-04-21 14:08 50.13088 3.53267 33166 ft 460 kts 210°
2026-04-21 14:09 50.10142 3.51293 33400 ft 461 kts 210°
2026-04-21 14:09 50.07186 3.49315 33635 ft 463 kts 209°
2026-04-21 14:09 50.04228 3.47338 33867 ft 464 kts 209°
2026-04-21 14:09 50.01255 3.45354 34158 ft 464 kts 209°
2026-04-21 14:10 49.98288 3.43378 34446 ft 463 kts 209°
2026-04-21 14:10 49.95328 3.41407 34707 ft 463 kts 209°
2026-04-21 14:10 49.92364 3.39437 34956 ft 463 kts 208°
2026-04-21 14:10 49.89401 3.37470 35191 ft 463 kts 209°
2026-04-21 14:11 49.86440 3.35508 35447 ft 463 kts 208°
2026-04-21 14:11 49.83480 3.33548 35689 ft 462 kts 208°
2026-04-21 14:11 49.80524 3.31594 35921 ft 462 kts 208°
2026-04-21 14:11 49.77564 3.29640 36148 ft 462 kts 208°
2026-04-21 14:12 49.74610 3.27692 36360 ft 462 kts 208°
2026-04-21 14:12 49.71654 3.25746 36570 ft 462 kts 208°
2026-04-21 14:12 49.68695 3.23800 36753 ft 461 kts 208°
2026-04-21 14:12 49.65747 3.21863 36980 ft 461 kts 208°
2026-04-21 14:13 49.62796 3.19928 37161 ft 461 kts 208°
2026-04-21 14:13 49.56890 3.16061 37186 ft 460 kts 207°
2026-04-21 14:14 49.51012 3.12222 37178 ft 459 kts 208°
2026-04-21 14:14 49.45540 3.07555 37215 ft 450 kts 219°
2026-04-21 14:15 49.40286 3.02199 37183 ft 450 kts 219°
2026-04-21 14:15 49.35061 2.96901 37181 ft 450 kts 219°
2026-04-21 14:16 49.29864 2.91645 37177 ft 450 kts 219°
2026-04-21 14:16 49.24635 2.86369 37170 ft 449 kts 219°
2026-04-21 14:17 49.19427 2.81129 37177 ft 448 kts 219°
2026-04-21 14:17 49.14223 2.75905 37183 ft 448 kts 219°
2026-04-21 14:18 49.09859 2.71536 37182 ft 448 kts 218°
2026-04-21 14:18 49.04649 2.66330 37162 ft 448 kts 218°
2026-04-21 14:19 48.99456 2.61156 37180 ft 444 kts 218°
2026-04-21 14:19 48.94334 2.56064 37182 ft 443 kts 218°
2026-04-21 14:20 48.89134 2.50909 37185 ft 443 kts 218°
2026-04-21 14:20 48.83973 2.45804 37179 ft 443 kts 218°
2026-04-21 14:21 48.78842 2.40742 37153 ft 443 kts 218°
2026-04-21 14:21 48.73679 2.35661 37161 ft 443 kts 218°
2026-04-21 14:22 48.68505 2.30581 37151 ft 443 kts 218°
2026-04-21 14:22 48.63334 2.25518 37156 ft 443 kts 218°
2026-04-21 14:23 48.58149 2.20513 37140 ft 444 kts 213°
2026-04-21 14:23 48.55240 2.18856 37140 ft 453 kts 198°
2026-04-21 14:23 48.52153 2.17823 37122 ft 456 kts 198°
2026-04-21 14:24 48.45962 2.15698 37124 ft 457 kts 197°
2026-04-21 14:24 48.39763 2.13676 37098 ft 454 kts 197°
2026-04-21 14:25 48.33584 2.11687 37116 ft 454 kts 197°
2026-04-21 14:25 48.27318 2.10432 37089 ft 463 kts 179°
2026-04-21 14:26 48.20877 2.11658 37108 ft 467 kts 177°
2026-04-21 14:26 48.14422 2.12946 37098 ft 468 kts 177°
2026-04-21 14:27 48.07966 2.13484 37113 ft 465 kts 182°
2026-04-21 14:27 48.01500 2.13867 37106 ft 465 kts 182°
2026-04-21 14:28 47.95035 2.14248 37101 ft 465 kts 182°
2026-04-21 14:28 47.88570 2.14627 37099 ft 465 kts 182°
2026-04-21 14:29 47.82109 2.15005 37100 ft 465 kts 182°
2026-04-21 14:29 47.75687 2.15380 37059 ft 465 kts 182°
2026-04-21 14:30 47.69182 2.15759 37072 ft 465 kts 182°
2026-04-21 14:30 47.62724 2.16134 37076 ft 465 kts 182°
2026-04-21 14:31 47.56262 2.16509 37054 ft 465 kts 182°
2026-04-21 14:31 47.49844 2.16879 37068 ft 465 kts 182°
2026-04-21 14:32 47.43376 2.17252 37065 ft 465 kts 182°
2026-04-21 14:32 47.36916 2.17624 37064 ft 465 kts 182°
2026-04-21 14:33 47.30457 2.17995 37062 ft 464 kts 183°
2026-04-21 14:33 47.24002 2.18364 37054 ft 464 kts 183°
2026-04-21 14:34 47.17544 2.18733 37049 ft 464 kts 183°
2026-04-21 14:34 47.11091 2.19112 37041 ft 465 kts 181°
2026-04-21 14:34 47.07894 2.20023 37009 ft 473 kts 164°
2026-04-21 14:35 47.04823 2.21798 37047 ft 476 kts 163°
2026-04-21 14:35 46.98629 2.25276 37051 ft 477 kts 162°
2026-04-21 14:36 46.92456 2.28844 37030 ft 477 kts 162°
2026-04-21 14:36 46.86289 2.32429 37040 ft 477 kts 162°
2026-04-21 14:37 46.80122 2.36007 37037 ft 477 kts 162°
2026-04-21 14:37 46.73960 2.39574 37031 ft 477 kts 162°
2026-04-21 14:38 46.67793 2.43134 37048 ft 476 kts 162°
2026-04-21 14:38 46.61619 2.46689 37026 ft 478 kts 162°
2026-04-21 14:39 46.55483 2.50217 37029 ft 478 kts 162°
2026-04-21 14:39 46.49301 2.53758 37020 ft 478 kts 162°
2026-04-21 14:40 46.43116 2.57294 37019 ft 478 kts 162°
2026-04-21 14:40 46.36932 2.60820 37015 ft 477 kts 162°
2026-04-21 14:41 46.30751 2.64337 37008 ft 477 kts 162°
2026-04-21 14:41 46.24578 2.67840 37015 ft 477 kts 162°
2026-04-21 14:42 46.18406 2.71334 37016 ft 476 kts 162°
2026-04-21 14:42 46.12237 2.74819 36992 ft 476 kts 162°
2026-04-21 14:43 46.06083 2.78287 37022 ft 474 kts 162°
2026-04-21 14:43 45.99951 2.81712 37006 ft 476 kts 163°
2026-04-21 14:44 45.93739 2.84989 37009 ft 476 kts 164°
2026-04-21 14:44 45.87536 2.88275 36996 ft 474 kts 164°
2026-04-21 14:45 45.81344 2.91550 36997 ft 474 kts 164°
2026-04-21 14:45 45.75122 2.94664 36978 ft 469 kts 173°
2026-04-21 14:45 45.71929 2.95068 36993 ft 456 kts 186°
2026-04-21 14:46 45.68747 2.95042 36989 ft 459 kts 185°
2026-04-21 14:46 45.62378 2.94948 37000 ft 457 kts 186°
2026-04-21 14:47 45.56013 2.94787 36989 ft 457 kts 186°
2026-04-21 14:47 45.49662 2.94618 36979 ft 455 kts 186°
2026-04-21 14:48 45.43327 2.94451 36981 ft 455 kts 186°
2026-04-21 14:48 45.36993 2.94284 36980 ft 455 kts 186°
2026-04-21 14:49 45.30665 2.94118 36988 ft 455 kts 186°
2026-04-21 14:49 45.24338 2.93953 36967 ft 454 kts 186°
2026-04-21 14:50 45.19083 2.93814 36960 ft 454 kts 186°
2026-04-21 14:50 45.11697 2.93622 36954 ft 453 kts 186°
2026-04-21 14:51 45.05397 2.93458 36954 ft 453 kts 186°
2026-04-21 14:51 44.99091 2.93293 36950 ft 453 kts 186°
2026-04-21 14:52 44.92791 2.93131 36938 ft 452 kts 186°
2026-04-21 14:52 44.86544 2.92968 36938 ft 452 kts 186°
2026-04-21 14:53 44.80247 2.92520 36934 ft 450 kts 188°
2026-04-21 14:53 44.74035 2.92060 36932 ft 450 kts 188°
2026-04-21 14:54 44.67787 2.91608 36920 ft 450 kts 188°
2026-04-21 14:54 44.61531 2.91157 36924 ft 450 kts 188°
2026-04-21 14:55 44.55282 2.90707 36913 ft 449 kts 188°
2026-04-21 14:55 44.49054 2.90259 36887 ft 447 kts 188°
2026-04-21 14:56 44.42841 2.89813 36926 ft 448 kts 188°
2026-04-21 14:56 44.36621 2.89368 36904 ft 447 kts 188°
2026-04-21 14:57 44.30423 2.88925 36911 ft 446 kts 188°
2026-04-21 14:57 44.24229 2.88484 36909 ft 446 kts 188°
2026-04-21 14:58 44.18033 2.88044 36880 ft 445 kts 188°
2026-04-21 14:58 44.11857 2.87605 36893 ft 444 kts 188°
2026-04-21 14:59 44.05691 2.87168 36888 ft 444 kts 188°
2026-04-21 14:59 43.99527 2.86733 36890 ft 444 kts 188°
2026-04-21 15:00 43.93374 2.86299 36897 ft 442 kts 188°
2026-04-21 15:00 43.87227 2.85866 36883 ft 442 kts 188°
2026-04-21 15:01 43.81081 2.85435 36893 ft 442 kts 188°
2026-04-21 15:01 43.74911 2.85377 36890 ft 444 kts 184°
2026-04-21 15:02 43.68728 2.85486 36888 ft 444 kts 185°
2026-04-21 15:02 43.62544 2.85569 36885 ft 444 kts 185°
2026-04-21 15:03 43.56363 2.85651 36883 ft 444 kts 185°
2026-04-21 15:03 43.51226 2.85719 36877 ft 443 kts 185°
2026-04-21 15:04 43.45062 2.85801 36892 ft 443 kts 185°
2026-04-21 15:04 43.37903 2.85895 36875 ft 443 kts 185°
2026-04-21 15:05 43.32755 2.85962 36893 ft 441 kts 185°
2026-04-21 15:05 43.23542 2.86083 36887 ft 441 kts 185°
2026-04-21 15:06 43.17404 2.86164 36883 ft 441 kts 184°
2026-04-21 15:06 43.11265 2.86244 36886 ft 441 kts 184°
2026-04-21 15:07 43.05131 2.86324 36884 ft 441 kts 184°
2026-04-21 15:07 42.98997 2.86404 36883 ft 441 kts 184°
2026-04-21 15:08 42.92873 2.86484 36875 ft 440 kts 184°
2026-04-21 15:08 42.86748 2.86562 36891 ft 440 kts 184°
2026-04-21 15:09 42.80623 2.86642 36879 ft 440 kts 184°
2026-04-21 15:09 42.74509 2.86615 36860 ft 434 kts 190°
2026-04-21 15:10 42.71599 2.86207 36660 ft 422 kts 190°
2026-04-21 15:10 42.68687 2.85842 36173 ft 419 kts 189°
2026-04-21 15:10 42.65754 2.85496 35630 ft 417 kts 189°
2026-04-21 15:10 42.62867 2.85170 35125 ft 415 kts 189°
2026-04-21 15:11 42.60043 2.84856 34653 ft 412 kts 189°
2026-04-21 15:11 42.57194 2.84543 34173 ft 410 kts 189°
2026-04-21 15:11 42.54360 2.84232 33668 ft 407 kts 189°
2026-04-21 15:11 42.51541 2.83923 33140 ft 405 kts 189°
2026-04-21 15:12 42.48739 2.83616 32670 ft 402 kts 189°
2026-04-21 15:12 42.45964 2.83311 32210 ft 399 kts 189°
2026-04-21 15:12 42.43195 2.82988 31699 ft 398 kts 189°
2026-04-21 15:12 42.40451 2.82666 31246 ft 395 kts 189°
2026-04-21 15:13 42.37721 2.82347 30847 ft 391 kts 189°
2026-04-21 15:13 42.35023 2.82033 30422 ft 388 kts 189°
2026-04-21 15:13 42.32338 2.81720 30002 ft 386 kts 189°
2026-04-21 15:13 42.29664 2.81410 29505 ft 384 kts 188°
2026-04-21 15:14 42.27013 2.81101 29062 ft 381 kts 188°
2026-04-21 15:14 42.24380 2.80797 28648 ft 378 kts 188°
2026-04-21 15:14 42.21768 2.80493 28246 ft 375 kts 188°
2026-04-21 15:14 42.19183 2.80194 27843 ft 372 kts 188°
2026-04-21 15:15 42.16613 2.79896 27447 ft 369 kts 188°
2026-04-21 15:15 42.14059 2.79601 27049 ft 367 kts 188°
2026-04-21 15:15 42.11525 2.79308 26665 ft 364 kts 188°
2026-04-21 15:15 42.09009 2.79017 26284 ft 362 kts 188°
2026-04-21 15:16 42.06509 2.78729 25906 ft 360 kts 188°
2026-04-21 15:16 42.04020 2.78442 25530 ft 358 kts 188°
2026-04-21 15:16 42.01541 2.78157 25154 ft 356 kts 188°
2026-04-21 15:16 41.99100 2.77694 24623 ft 355 kts 200°
2026-04-21 15:17 41.96924 2.76184 23919 ft 355 kts 223°
2026-04-21 15:17 41.95254 2.73742 23233 ft 357 kts 237°
2026-04-21 15:17 41.93794 2.71021 22486 ft 363 kts 236°
2026-04-21 15:17 41.92279 2.68279 21693 ft 364 kts 235°
2026-04-21 15:18 41.90778 2.65578 20964 ft 359 kts 235°
2026-04-21 15:18 41.89291 2.62910 20281 ft 354 kts 235°
2026-04-21 15:18 41.87835 2.60299 19810 ft 344 kts 235°
2026-04-21 15:18 41.86430 2.57773 19466 ft 331 kts 235°
2026-04-21 15:19 41.85078 2.55345 19133 ft 319 kts 235°
2026-04-21 15:19 41.83771 2.53003 18808 ft 308 kts 235°
2026-04-21 15:19 41.82507 2.50738 18488 ft 298 kts 235°
2026-04-21 15:19 41.81279 2.48543 18174 ft 291 kts 234°
2026-04-21 15:20 41.80043 2.46348 17801 ft 299 kts 234°
2026-04-21 15:20 41.78778 2.44109 17466 ft 304 kts 234°
2026-04-21 15:20 41.77500 2.41847 17154 ft 305 kts 234°
2026-04-21 15:20 41.76223 2.39583 16834 ft 304 kts 234°
2026-04-21 15:21 41.74948 2.37326 16518 ft 303 kts 234°
2026-04-21 15:21 41.73679 2.35082 16201 ft 301 kts 234°
2026-04-21 15:21 41.72421 2.32854 15894 ft 299 kts 234°
2026-04-21 15:21 41.71167 2.30638 15573 ft 298 kts 234°
2026-04-21 15:22 41.69918 2.28434 15259 ft 297 kts 234°
2026-04-21 15:22 41.68675 2.26237 14934 ft 295 kts 234°
2026-04-21 15:22 41.67435 2.24053 14620 ft 293 kts 234°
2026-04-21 15:22 41.66207 2.21888 14316 ft 291 kts 234°
2026-04-21 15:23 41.64987 2.19736 14007 ft 290 kts 234°
2026-04-21 15:23 41.63782 2.17617 13704 ft 289 kts 233°
2026-04-21 15:23 41.62564 2.15473 13368 ft 289 kts 234°
2026-04-21 15:23 41.61353 2.13346 13054 ft 287 kts 234°
2026-04-21 15:24 41.60150 2.11233 12718 ft 285 kts 234°
2026-04-21 15:24 41.58953 2.09131 12427 ft 283 kts 233°
2026-04-21 15:24 41.57762 2.07044 12120 ft 282 kts 234°
2026-04-21 15:24 41.56573 2.04958 11813 ft 282 kts 233°
2026-04-21 15:25 41.55387 2.02882 11515 ft 279 kts 233°
2026-04-21 15:25 41.54214 2.00829 11219 ft 277 kts 234°
2026-04-21 15:25 41.53045 1.98784 10932 ft 277 kts 234°
2026-04-21 15:25 41.51876 1.96741 10634 ft 277 kts 234°
2026-04-21 15:26 41.50707 1.94700 10337 ft 276 kts 233°
2026-04-21 15:26 41.49543 1.92665 10048 ft 275 kts 234°
2026-04-21 15:26 41.48390 1.90655 9778 ft 272 kts 233°
2026-04-21 15:26 41.47242 1.88656 9463 ft 270 kts 234°
2026-04-21 15:27 41.46105 1.86674 9162 ft 268 kts 233°
2026-04-21 15:27 41.44978 1.84711 8875 ft 266 kts 233°
2026-04-21 15:27 41.43858 1.82760 8571 ft 263 kts 233°
2026-04-21 15:27 41.42749 1.80833 8296 ft 261 kts 232°
2026-04-21 15:28 41.41648 1.78921 8022 ft 259 kts 233°
2026-04-21 15:28 41.40557 1.77027 7739 ft 255 kts 233°
2026-04-21 15:28 41.39493 1.75178 7466 ft 250 kts 233°
2026-04-21 15:28 41.38423 1.73326 7203 ft 255 kts 232°
2026-04-21 15:29 41.37330 1.71431 6917 ft 260 kts 232°
2026-04-21 15:29 41.36231 1.69526 6634 ft 260 kts 232°
2026-04-21 15:29 41.35132 1.67624 6359 ft 259 kts 232°
2026-04-21 15:29 41.34036 1.65728 6056 ft 258 kts 232°
2026-04-21 15:30 41.32944 1.63841 5751 ft 257 kts 231°
2026-04-21 15:30 41.31857 1.61963 5472 ft 255 kts 231°
2026-04-21 15:30 41.30781 1.60102 5191 ft 253 kts 231°
2026-04-21 15:30 41.29709 1.58251 4924 ft 252 kts 231°
2026-04-21 15:31 41.28643 1.56415 4635 ft 251 kts 231°
2026-04-21 15:31 41.27582 1.54584 4348 ft 249 kts 231°
2026-04-21 15:31 41.26535 1.52782 4191 ft 243 kts 231°
2026-04-21 15:31 41.25548 1.51082 4054 ft 225 kts 230°
2026-04-21 15:32 41.24636 1.49515 4039 ft 207 kts 231°
2026-04-21 15:32 41.23814 1.47947 3932 ft 202 kts 243°
2026-04-21 15:32 41.23294 1.46194 3749 ft 206 kts 246°
2026-04-21 15:32 41.22781 1.44414 3630 ft 207 kts 246°
2026-04-21 15:33 41.22269 1.42653 3556 ft 207 kts 246°
2026-04-21 15:33 41.21751 1.40869 3400 ft 207 kts 246°
2026-04-21 15:33 41.21234 1.39095 3271 ft 206 kts 245°
2026-04-21 15:33 41.20709 1.37333 3035 ft 205 kts 246°
2026-04-21 15:34 41.20198 1.35568 2924 ft 205 kts 247°
2026-04-21 15:34 41.19696 1.33818 2889 ft 195 kts 245°
2026-04-21 15:34 41.19224 1.32195 2588 ft 181 kts 245°
2026-04-21 15:34 41.18793 1.30702 2252 ft 165 kts 246°
2026-04-21 15:35 41.18396 1.29329 1935 ft 154 kts 246°
2026-04-21 15:35 41.18020 1.28035 1584 ft 148 kts 247°
2026-04-21 15:35 41.17667 1.26809 1332 ft 136 kts 247°
2026-04-21 15:35 41.17336 1.25645 1120 ft 137 kts 246°
2026-04-21 15:36 41.17010 1.24434 893 ft 140 kts 246°
2026-04-21 15:36 41.16660 1.23210 903 ft 147 kts 244°
2026-04-21 15:36 41.16256 1.21925 840 ft 151 kts 244°
2026-04-21 15:36 41.15874 1.20647 687 ft 147 kts 247°
2026-04-21 15:37 41.15510 1.19382 473 ft 145 kts 246°
2026-04-21 15:37 41.15159 1.18150 264 ft 139 kts 246°
2026-04-21 15:37 41.14867 1.17162 243 ft 83 kts 250°
2026-04-21 15:37 41.14776 1.16712 243 ft 31 kts 302°
2026-04-21 15:38 41.14838 1.16661 243 ft 0 kts 339°
2026-04-21 15:38 41.14754 1.15860 242 ft 0 kts 343°